Date String (YYYY-MM-DD hh:mm:ss) UTC,Instrument flags,Ambient pressure (hPa),Sample flow (lpm),Bypass flow (lpm),Sample temperature (°C),Ambient temperature (°C),ASC tube jacket temperature (°C),LED temperature (°C),Box temperature (°C),Sample RH (%),Span deviation,Mass concentration (μg/m³),Mass concentration (μg/m³),Mass concentration (μg/m³)
DateTimeUTC,F1_M11,P_M11,Q1_M11,Q2_M11,T1_M11,T2_M11,T3_M11,T4_M11,T5_M11,U1_M11,ZSPAN_M11,X0_M11,X2_M11,X1_M11
2023-01-31 20:00:00,,0823.8,5.00,0.00,23.4,22.1,00.0,32.2,25.1,06.1,0000.1,0014.13,0008.76,0008.16
2023-01-31 20:01:00,,0823.7,4.99,0.00,23.4,22.2,00.0,32.2,25.2,06.1,-000.6,0014.16,0008.79,0008.18
2023-01-31 20:02:00,,0823.8,4.99,0.00,23.4,22.2,00.0,32.2,25.2,06.2,-001.4,0014.23,0008.83,0008.20
2023-01-31 20:03:00,,0823.7,5.03,0.00,23.5,22.2,00.0,32.2,25.2,06.3,-001.4,0014.27,0008.86,0008.23
2023-01-31 20:04:00,,0823.8,5.00,0.00,23.5,22.2,00.0,32.2,25.2,06.3,-001.2,0014.19,0008.83,0008.22
2023-01-31 20:05:00,,0823.8,5.00,0.00,23.5,22.2,00.0,32.2,25.3,06.2,-001.0,0014.14,0008.81,0008.23
2023-01-31 20:06:00,,0823.8,4.97,0.00,23.5,22.2,00.0,32.2,25.2,06.1,-000.9,0013.53,0008.80,0008.24
2023-01-31 20:07:00,,0823.7,5.01,0.00,23.4,22.2,00.0,32.2,25.2,06.1,-000.7,0013.48,0008.80,0008.25
2023-01-31 20:08:00,,0823.7,5.00,0.00,23.5,22.2,00.0,32.3,25.2,06.1,-000.6,0013.48,0008.81,0008.24
2023-01-31 20:09:00,,0823.7,5.03,0.00,23.5,22.2,00.0,32.3,25.2,06.2,-000.5,0013.68,0008.79,0008.24
2023-01-31 20:10:00,,0823.7,4.99,0.00,23.5,22.2,00.0,32.3,25.3,06.3,-000.4,0014.14,0008.79,0008.26
2023-01-31 20:11:00,,0823.7,4.96,0.00,23.5,22.2,00.0,32.3,25.2,06.2,-000.4,0014.48,0008.80,0008.28
2023-01-31 20:12:00,,0823.7,4.99,0.00,23.5,22.2,00.0,32.3,25.2,06.2,-000.3,0014.42,0008.78,0008.28
2023-01-31 20:13:00,,0823.7,4.99,0.00,23.5,22.2,00.0,32.3,25.2,06.2,-000.0,0014.59,0008.72,0008.26
2023-01-31 20:14:00,,0823.7,4.98,0.00,23.5,22.2,00.0,32.3,25.2,06.3,-000.1,0014.60,0008.70,0008.25
2023-01-31 20:15:00,,0823.7,5.02,0.00,23.5,22.2,00.0,32.3,25.2,06.4,0000.2,0014.61,0008.71,0008.25
2023-01-31 20:16:00,,0823.7,5.02,0.00,23.5,22.2,00.0,32.3,25.2,06.2,0000.2,0014.63,0008.68,0008.20
2023-01-31 20:17:00,,0823.6,4.97,0.00,23.5,22.2,00.0,32.3,25.2,06.3,0000.3,0014.54,0008.63,0008.15
2023-01-31 20:18:00,,0823.6,4.99,0.00,23.5,22.3,00.0,32.3,25.3,06.2,0000.2,0014.45,0008.57,0008.09
2023-01-31 20:19:00,,0823.6,5.01,0.00,23.5,22.3,00.0,32.3,25.3,06.2,0000.1,0015.81,0008.55,0008.04
2023-01-31 20:20:00,,0823.7,5.00,0.00,23.5,22.3,00.0,32.3,25.3,06.4,-000.0,0015.69,0008.51,0008.00
2023-01-31 20:21:00,,0823.7,4.95,0.00,23.5,22.3,00.0,32.3,25.3,06.1,-000.1,0015.44,0008.42,0007.93
2023-01-31 20:22:00,,0823.7,4.99,0.00,23.6,22.3,00.0,32.3,25.3,06.2,-000.2,0015.64,0008.32,0007.84
2023-01-31 20:23:00,,0823.7,5.03,0.00,23.6,22.3,00.0,32.3,25.3,06.3,0000.2,0015.84,0008.25,0007.76
2023-01-31 20:24:00,,0823.7,4.98,0.00,23.6,22.3,00.0,32.3,25.3,06.2,0000.4,0015.45,0008.19,0007.70
2023-01-31 20:25:00,,0823.7,4.99,0.00,23.6,22.3,00.0,32.3,25.3,06.3,0000.7,0015.27,0008.12,0007.63
2023-01-31 20:26:00,,0823.7,4.99,0.00,23.6,22.3,00.0,32.4,25.3,06.4,0000.3,0015.51,0008.12,0007.60
2023-01-31 20:27:00,,0823.7,4.99,0.00,23.6,22.3,00.0,32.4,25.3,06.4,-000.1,0015.85,0008.16,0007.61
2023-01-31 20:28:00,,0823.7,5.00,0.00,23.6,22.3,00.0,32.4,25.3,06.6,0000.1,0015.92,0008.16,0007.61
2023-01-31 20:29:00,,0823.7,5.02,0.00,23.6,22.3,00.0,32.4,25.4,06.4,-000.1,0015.95,0008.19,0007.61
2023-01-31 20:30:00,,0823.7,5.02,0.00,23.6,22.3,00.0,32.4,25.3,06.4,-000.2,0014.62,0008.20,0007.62
2023-01-31 20:31:00,,0823.6,4.96,0.00,23.6,22.3,00.0,32.4,25.3,06.5,-000.0,0015.75,0008.24,0007.62
2023-01-31 20:32:00,,0823.7,5.04,0.00,23.6,22.3,00.0,32.4,25.3,06.5,0000.4,0015.63,0008.28,0007.65
2023-01-31 20:33:00,,0823.6,4.96,0.00,23.6,22.3,00.0,32.4,25.4,06.5,0000.8,0014.99,0008.31,0007.69
2023-01-31 20:34:00,,0823.6,5.03,0.00,23.6,22.4,00.0,32.4,25.4,06.5,0000.3,0014.80,0008.36,0007.73
2023-01-31 20:35:00,,0823.7,4.99,0.00,23.6,22.4,00.0,32.4,25.4,06.5,0000.3,0014.91,0008.40,0007.78
2023-01-31 20:36:00,,0823.6,5.00,0.00,23.6,22.4,00.0,32.4,25.4,06.5,0000.3,0014.97,0008.44,0007.83
2023-01-31 20:37:00,,0823.5,5.00,0.00,23.7,22.4,00.0,32.4,25.4,06.5,-000.1,0014.62,0008.39,0007.82
2023-01-31 20:38:00,,0823.4,5.05,0.00,23.7,22.4,00.0,32.4,25.4,06.5,-000.0,0014.43,0008.35,0007.83
2023-01-31 20:39:00,,0823.5,4.98,0.00,23.7,22.4,00.0,32.4,25.5,06.4,-000.5,0014.79,0008.33,0007.84
2023-01-31 20:40:00,,0823.4,4.99,0.00,23.7,22.4,00.0,32.4,25.5,06.4,-000.6,0014.80,0008.33,0007.84
2023-01-31 20:41:00,,0823.4,5.01,0.00,23.7,22.4,00.0,32.5,25.5,06.4,-000.7,0015.02,0008.31,0007.85
2023-01-31 20:42:00,,0823.4,4.95,0.00,23.7,22.5,00.0,32.5,25.5,06.4,-001.3,0013.59,0008.29,0007.87
2023-01-31 20:43:00,,0823.4,5.03,0.00,23.7,22.5,00.0,32.5,25.5,06.4,-001.5,0013.63,0008.34,0007.88
2023-01-31 20:44:00,,0823.4,4.95,0.00,23.7,22.5,00.0,32.5,25.5,06.4,-001.3,0013.85,0008.38,0007.87
2023-01-31 20:45:00,,0823.4,5.04,0.00,23.7,22.5,00.0,32.5,25.5,06.2,-001.0,0013.84,0008.39,0007.87
2023-01-31 20:46:00,,0823.4,4.97,0.00,23.7,22.5,00.0,32.5,25.5,06.3,-001.2,0013.77,0008.37,0007.85
2023-01-31 20:47:00,,0823.4,5.02,0.00,23.7,22.5,00.0,32.5,25.5,06.4,-001.0,0013.72,0008.34,0007.83
2023-01-31 20:48:00,,0823.4,4.98,0.00,23.7,22.5,00.0,32.5,25.5,06.3,-000.8,0014.32,0008.32,0007.81
2023-01-31 20:49:00,,0823.4,4.99,0.00,23.8,22.5,00.0,32.5,25.5,06.3,-001.0,0014.22,0008.26,0007.73
2023-01-31 20:50:00,,0823.4,4.98,0.00,23.8,22.5,00.0,32.5,25.5,06.5,-000.8,0013.94,0008.24,0007.71
2023-01-31 20:51:00,,0823.4,4.99,0.00,23.8,22.5,00.0,32.5,25.5,06.4,-000.1,0014.08,0008.18,0007.68
2023-01-31 20:52:00,,0823.3,5.00,0.00,23.8,22.5,00.0,32.5,25.5,06.4,0000.2,0013.66,0008.13,0007.63
2023-01-31 20:53:00,,0823.3,4.99,0.00,23.8,22.5,00.0,32.6,25.5,06.5,0000.9,0013.44,0008.08,0007.58
2023-01-31 20:54:00,,0823.4,5.06,0.00,23.8,22.6,00.0,32.6,25.6,06.4,0000.9,0013.59,0007.96,0007.52
2023-01-31 20:55:00,,0823.3,5.01,0.00,23.8,22.6,00.0,32.6,25.5,06.4,0000.7,0013.55,0007.84,0007.47
2023-01-31 20:56:00,,0823.4,4.99,0.00,23.8,22.6,00.0,32.6,25.6,06.4,0000.6,0013.36,0007.73,0007.40
2023-01-31 20:57:00,,0823.4,4.97,0.00,23.8,22.6,00.0,32.6,25.6,06.3,0001.4,0013.25,0007.66,0007.35
2023-01-31 20:58:00,,0823.4,5.03,0.00,23.8,22.6,00.0,32.6,25.6,06.4,0001.2,0013.22,0007.62,0007.31
2023-01-31 20:59:00,,0823.4,5.02,0.00,23.8,22.6,00.0,32.6,25.6,06.4,0001.0,0012.66,0007.61,0007.28
